This is the latest recevied weather packets stored in our database for station/object ON6OO-13. If no packets are shown the sender has not sent any weather packets the latest 10 day(s).
| Time | Temp. | Humidity | Pressure | Rain* | Wind** | Luminosity | Snow |
|---|---|---|---|---|---|---|---|
| 1777644422 | 23.89° C | 22% | 1013.5 hPa | 0 mm | - | - | - |
| 1777643510 | 23.89° C | 22% | 1013.8 hPa | 0 mm | - | - | - |
| 1777642598 | 23.33° C | 23% | 1014.2 hPa | 0 mm | - | - | - |
| 1777641686 | 23.33° C | 23% | 1014.5 hPa | 0 mm | - | - | - |
| 1777640774 | 22.78° C | 24% | 1014.5 hPa | 0 mm | - | - | - |
| 1777639862 | 22.78° C | 22% | 1014.2 hPa | 0 mm | - | - | - |
| 1777638950 | 22.22° C | 25% | 1014.5 hPa | 0 mm | - | - | - |
| 1777638038 | 22.22° C | 23% | 1015.2 hPa | 0 mm | - | - | - |
| 1777637126 | 21.67° C | 24% | 1014.9 hPa | 0 mm | - | - | - |
| 1777636214 | 21.11° C | 24% | 1014.9 hPa | 0 mm | - | - | - |
| 1777635302 | 21.11° C | 26% | 1015.2 hPa | 0 mm | - | - | - |
| 1777634390 | 20.56° C | 29% | 1015.5 hPa | 0 mm | - | - | - |
| 1777633478 | 20.56° C | 31% | 1015.5 hPa | 0 mm | - | - | - |
| 1777632566 | 20° C | 32% | 1015.9 hPa | 0 mm | - | - | - |
| 1777631654 | 19.44° C | 31% | 1015.9 hPa | 0 mm | - | - | - |
| 1777630742 | 18.89° C | 30% | 1016.2 hPa | 0 mm | - | - | - |
| 1777629830 | 18.33° C | 31% | 1016.2 hPa | 0 mm | - | - | - |
| 1777628918 | 18.33° C | 32% | 1016.2 hPa | 0 mm | - | - | - |
| 1777628006 | 18.33° C | 33% | 1016.9 hPa | 0 mm | - | - | - |
| 1777627094 | 17.78° C | 33% | 1016.5 hPa | 0 mm | - | - | - |
| 1777626182 | 17.22° C | 33% | 1016.5 hPa | 0 mm | - | - | - |
| 1777625270 | 16.67° C | 35% | 1016.9 hPa | 0 mm | - | - | - |
| 1777624358 | 16.11° C | 36% | 1016.9 hPa | 0 mm | - | - | - |
| 1777623446 | 16.11° C | 36% | 1017.2 hPa | 0 mm | - | - | - |
| 1777622534 | 15.56° C | 35% | 1017.6 hPa | 0 mm | - | - | - |
* Rain latest hour (hover to see other rain measurements)
** Current wind speed in m/s (hover to see current wind gust speed)